TimeAKDT,TemperatureF,Dew PointF,Humidity,Sea Level PressureIn,VisibilityMPH,Wind Direction,Wind SpeedMPH,Gust SpeedMPH,PrecipitationIn,Events,Conditions,WindDirDegrees,DateUTC
12:16 AM,-13.0,-18.4,77,30.08,5.0,Calm,Calm,-,N/A,,Clear,0,2014-04-10 08:16:00
12:36 AM,-13.0,-20.2,70,30.08,3.0,Calm,Calm,-,N/A,,Clear,0,2014-04-10 08:36:00
12:56 AM,-14.8,-20.2,77,30.09,4.0,Calm,Calm,-,N/A,,Clear,0,2014-04-10 08:56:00
1:16 AM,-14.8,-20.2,77,30.10,2.5,Calm,Calm,-,N/A,,Clear,0,2014-04-10 09:16:00
1:36 AM,-16.6,-23.8,70,30.10,3.0,Calm,Calm,-,N/A,,Clear,0,2014-04-10 09:36:00
1:56 AM,-16.6,-25.6,64,30.10,9.0,Calm,Calm,-,N/A,,Clear,0,2014-04-10 09:56:00
2:16 AM,-18.4,-23.8,76,30.10,8.0,Calm,Calm,-,N/A,,Clear,0,2014-04-10 10:16:00
2:36 AM,-20.2,-27.4,69,30.10,10.0,Calm,Calm,-,N/A,,Clear,0,2014-04-10 10:36:00
2:56 AM,-18.4,-23.8,76,30.10,10.0,Calm,Calm,-,N/A,,Clear,0,2014-04-10 10:56:00
3:36 AM,-20.2,-29.2,63,30.11,10.0,Calm,Calm,-,N/A,,Clear,0,2014-04-10 11:36:00
3:56 AM,-20.2,-9999,N/A,30.11,10.0,NE,3.5,-,N/A,,Clear,50,2014-04-10 11:56:00
4:16 AM,-14.8,-14.8,100,30.11,10.0,ENE,3.5,-,N/A,,Clear,60,2014-04-10 12:16:00
4:36 AM,-20.2,-9999,N/A,30.11,10.0,Calm,Calm,-,N/A,,Clear,0,2014-04-10 12:36:00
5:36 AM,-20.2,-20.2,100,30.11,10.0,Calm,Calm,-,N/A,,Clear,0,2014-04-10 13:36:00
5:56 AM,-22.0,-9999,N/A,30.11,10.0,Calm,Calm,-,N/A,,Clear,0,2014-04-10 13:56:00
6:16 AM,-23.8,-9999,N/A,30.11,10.0,Calm,Calm,-,N/A,,Clear,0,2014-04-10 14:16:00
6:36 AM,-20.2,-27.4,69,30.12,10.0,Calm,Calm,-,N/A,,Clear,0,2014-04-10 14:36:00
6:56 AM,-20.2,-23.8,83,30.12,10.0,Calm,Calm,-,N/A,,Clear,0,2014-04-10 14:56:00
7:16 AM,-18.4,-27.4,63,30.12,10.0,Calm,Calm,-,N/A,,Clear,0,2014-04-10 15:16:00
7:36 AM,-16.6,-22.0,76,30.13,10.0,Calm,Calm,-,N/A,,Clear,0,2014-04-10 15:36:00
7:56 AM,-14.8,-18.4,84,30.13,10.0,Calm,Calm,-,N/A,,Clear,0,2014-04-10 15:56:00
8:16 AM,-11.2,-16.6,77,30.13,10.0,Calm,Calm,-,N/A,,Clear,0,2014-04-10 16:16:00
8:36 AM,-9.4,-16.6,71,30.13,10.0,Calm,Calm,-,N/A,,Clear,0,2014-04-10 16:36:00
9:16 AM,-5.8,-11.2,77,30.13,10.0,Calm,Calm,-,N/A,,Clear,0,2014-04-10 17:16:00
9:36 AM,-2.2,-11.2,66,30.13,10.0,Calm,Calm,-,N/A,,Clear,0,2014-04-10 17:36:00
9:56 AM,-0.4,-7.6,72,30.13,10.0,Calm,Calm,-,N/A,,Clear,0,2014-04-10 17:56:00
10:16 AM,1.4,-7.6,66,30.13,10.0,Calm,Calm,-,N/A,,Clear,0,2014-04-10 18:16:00
10:36 AM,6.8,-5.8,56,30.13,10.0,Calm,Calm,-,N/A,,Clear,0,2014-04-10 18:36:00
10:56 AM,6.8,-5.8,56,30.13,10.0,Calm,Calm,-,N/A,,Clear,0,2014-04-10 18:56:00
11:16 AM,8.6,-5.8,52,30.13,10.0,Calm,Calm,-,N/A,,Clear,0,2014-04-10 19:16:00
11:36 AM,10.4,-5.8,48,30.13,10.0,Calm,Calm,-,N/A,,Clear,0,2014-04-10 19:36:00
11:56 AM,12.2,-2.2,53,30.13,10.0,Calm,Calm,-,N/A,,Clear,0,2014-04-10 19:56:00
12:16 PM,12.2,-2.2,53,30.13,10.0,WNW,4.6,-,N/A,,Clear,300,2014-04-10 20:16:00
12:36 PM,15.8,-0.4,49,30.12,10.0,SSE,3.5,-,N/A,,Clear,160,2014-04-10 20:36:00
12:56 PM,15.8,-0.4,49,30.12,10.0,SSW,5.8,-,N/A,,Clear,200,2014-04-10 20:56:00
1:16 PM,17.6,1.4,49,30.12,10.0,Calm,Calm,-,N/A,,Clear,0,2014-04-10 21:16:00
1:36 PM,17.6,-0.4,45,30.12,10.0,Calm,Calm,-,N/A,,Clear,0,2014-04-10 21:36:00
1:56 PM,17.6,-0.4,45,30.11,10.0,Calm,Calm,-,N/A,,Clear,0,2014-04-10 21:56:00
2:16 PM,19.4,-0.4,42,30.11,10.0,SW,3.5,-,N/A,,Clear,220,2014-04-10 22:16:00
2:36 PM,19.4,1.4,46,30.11,10.0,South,4.6,-,N/A,,Clear,170,2014-04-10 22:36:00
2:56 PM,19.4,-0.4,42,30.10,10.0,South,4.6,-,N/A,,Clear,190,2014-04-10 22:56:00
3:16 PM,19.4,-0.4,42,30.10,10.0,SW,4.6,-,N/A,,Clear,220,2014-04-10 23:16:00
3:36 PM,19.4,-0.4,42,30.10,10.0,South,4.6,-,N/A,,Clear,190,2014-04-10 23:36:00
3:56 PM,19.4,-0.4,42,30.09,10.0,Calm,Calm,-,N/A,,Clear,0,2014-04-10 23:56:00
4:16 PM,21.2,-0.4,39,30.09,10.0,Calm,Calm,-,N/A,,Clear,0,2014-04-11 00:16:00
4:36 PM,21.2,-2.2,36,30.08,10.0,Calm,Calm,-,N/A,,Clear,0,2014-04-11 00:36:00
4:56 PM,21.2,-2.2,36,30.07,10.0,Calm,Calm,-,N/A,,Clear,0,2014-04-11 00:56:00
5:16 PM,21.2,-2.2,36,30.06,10.0,Calm,Calm,-,N/A,,Clear,0,2014-04-11 01:16:00
5:36 PM,21.2,-0.4,39,30.06,10.0,Calm,Calm,-,N/A,,Clear,0,2014-04-11 01:36:00
5:56 PM,21.2,-2.2,36,30.06,10.0,Calm,Calm,-,N/A,,Clear,0,2014-04-11 01:56:00
6:16 PM,21.2,-2.2,36,30.06,10.0,Calm,Calm,-,N/A,,Clear,0,2014-04-11 02:16:00
6:36 PM,21.2,-2.2,36,30.06,10.0,Calm,Calm,-,N/A,,Clear,0,2014-04-11 02:36:00
6:56 PM,21.2,-2.2,36,30.06,10.0,Calm,Calm,-,N/A,,Clear,0,2014-04-11 02:56:00
7:16 PM,21.2,-2.2,36,30.05,10.0,Calm,Calm,-,N/A,,Clear,0,2014-04-11 03:16:00
7:36 PM,21.2,-2.2,36,30.05,10.0,Calm,Calm,-,N/A,,Clear,0,2014-04-11 03:36:00
7:56 PM,21.2,-4.0,33,30.05,10.0,Calm,Calm,-,N/A,,Clear,0,2014-04-11 03:56:00
8:16 PM,19.4,-5.8,33,30.05,10.0,Calm,Calm,-,N/A,,Clear,0,2014-04-11 04:16:00
8:36 PM,19.4,-5.8,33,30.04,10.0,Calm,Calm,-,N/A,,Clear,0,2014-04-11 04:36:00
8:56 PM,15.8,-5.8,38,30.05,10.0,Calm,Calm,-,N/A,,Clear,0,2014-04-11 04:56:00
9:16 PM,12.2,-5.8,45,30.05,10.0,Calm,Calm,-,N/A,,Clear,0,2014-04-11 05:16:00
9:36 PM,10.4,-5.8,48,30.04,10.0,Calm,Calm,-,N/A,,Clear,0,2014-04-11 05:36:00
9:56 PM,8.6,-7.6,48,30.04,10.0,Calm,Calm,-,N/A,,Clear,0,2014-04-11 05:56:00
10:16 PM,6.8,-7.6,52,30.04,10.0,Calm,Calm,-,N/A,,Clear,0,2014-04-11 06:16:00
10:36 PM,5.0,-7.6,56,30.04,10.0,Calm,Calm,-,N/A,,Clear,0,2014-04-11 06:36:00
10:56 PM,1.4,-9.4,61,30.04,10.0,Calm,Calm,-,N/A,,Partly Cloudy,0,2014-04-11 06:56:00
11:16 PM,1.4,-11.2,56,30.05,10.0,Calm,Calm,-,N/A,,Partly Cloudy,0,2014-04-11 07:16:00
11:36 PM,-0.4,-9.4,66,30.05,10.0,Calm,Calm,-,N/A,,Scattered Clouds,0,2014-04-11 07:36:00
11:56 PM,-2.2,-14.8,55,30.05,10.0,Calm,Calm,-,N/A,,Mostly Cloudy,0,2014-04-11 07:56:00